Find Starlink 11665

NORAD ID: 63549 Int'l Des: 2025-075 Owner: SPXS Country: US Constellation: starlink operational
LEOCIRCULAR

Current View

Loading 3D Globe...

About Starlink 11665

Starlink 11665 (NORAD 63549) is a starlink constellation satellite (v2 mini d2c) launched Apr 13, 2025 by SPXS of US. It operates in LEO, CIRCULAR orbit with a mass of 960.00 kg.

About Starlink 11665

Description loading...

Upcoming Passes

Passes for default location (London). Set your location on the main map for personalized predictions.

Altitude History

Loading altitude history...

Two-Line Element Set

1 63549U 25075B 26167.58926097 .00151164 00000-0 11568-2 0 9995
2 63549 43.0005 277.6101 0002608 275.2207 84.8363 15.70909155 68802
Epoch: Jun 16, 2026 • Age: 33 hours

Current Status

Altitude 364.3 km
Velocity 7.69 km/s
Sub-Earth Point -37.11°S, 42.47°W
Launch Date Apr 13, 2025
Age 1.1 years
Type internet

Technical Details

Classification Payload
Mass 960.00 kg
Dry Mass 910.00 kg
Total Mass 960.00 kg
Length 0.30 m
Diameter 4.10 m
Span 29.00 m
Shape Box + pan
Manufacturer SPXS
Bus Type Starlink V2MD
Phase Status In Orbit
Owner/State SPXS/US

Most Searched